Overview Statistics Trail Chart Weather Telemetry Raw packets
 

This is the latest recevied weather packets stored in our database for station/object HB9FHL-13. If no packets are shown the sender has not sent any weather packets the latest 10 day(s).

<< 133 134 135 136 137 >>
Time Temp. Humidity Pressure Rain* Wind** Luminosity Snow
1787829968 25.56° C - 1015.5 hPa 0 mm - - -
1787829963 25.56° C - 1015.5 hPa 0 mm - - -
1787829663 25.56° C - 1010.7 hPa 0 mm - - -
1787829366 25.56° C - 1013.4 hPa 0 mm - - -
1787829362 25.56° C - 1013.4 hPa 0 mm - - -
1787829062 26.11° C - 1009.4 hPa 0 mm - - -
1787828766 25° C - 1014.5 hPa 0 mm - - -
1787828761 25° C - 1014.5 hPa 0 mm - - -
1787828465 25° C - 1018.5 hPa 0 mm - - -
1787828461 25° C - 1018.5 hPa 0 mm - - -
1787828215 25° C - 1015.6 hPa 0 mm - - -
1787828166 25° C - 1015.6 hPa 0 mm - - -
1787828160 25° C - 1015.6 hPa 0 mm - - -
1787827894 25.56° C - 1016.5 hPa 0 mm - - -
1787827859 25.56° C - 1016.5 hPa 0 mm - - -
1787827564 25.56° C - 1009.6 hPa 0 mm - - -
1787827559 25.56° C - 1009.6 hPa 0 mm - - -
1787827261 25° C - 1015.2 hPa 0 mm - - -
1787827259 25° C - 1015.2 hPa 0 mm - - -
1787826956 25° C - 1014.8 hPa 0 mm - - -
1787826660 25.56° C - 1015.7 hPa 0 mm - - -
1787826656 25.56° C - 1015.7 hPa 0 mm - - -
1787826358 24.44° C - 1013.3 hPa 0 mm - - -
1787826355 24.44° C - 1013.3 hPa 0 mm - - -
1787826053 24.44° C - 1014 hPa 0 mm - - -

* Rain since midnight (hover to see other rain measurements)
** Current wind speed in m/s (hover to see current wind gust speed)